| time (UTC) | temp F | wind direction | speed MPH | gust MPH | rain 1hr in | rain 24hr in | rain mn in | humidity % | barometer mb |
| 20260505203822 | 44 | 313 | 13.0 | 25.0 | 0.00 | 0.00 | 0.00 | 36 | 1015.9 |
| 20260505202802 | 43 | 333 | 16.0 | 24.0 | 0.00 | 0.00 | 0.00 | 36 | 1015.8 |
| 20260505201749 | 43 | 327 | 13.0 | 22.0 | 0.00 | 0.00 | 0.00 | 36 | 1015.9 |
| 20260505200735 | 43 | 14 | 14.0 | 24.0 | 0.00 | 0.00 | 0.00 | 36 | 1016.0 |
| 20260505194525 | 43 | 0 | 14.0 | 25.0 | 0.00 | 0.00 | 0.00 | 37 | 1015.7 |
| 20260505193544 | 43 | 286 | 15.0 | 27.0 | 0.00 | 0.00 | 0.00 | 36 | 1015.8 |
| 20260505192551 | 43 | 0 | 14.0 | 31.0 | 0.00 | 0.00 | 0.00 | 36 | 1015.8 |
| 20260505191552 | 42 | 0 | 14.0 | 31.0 | 0.00 | 0.00 | 0.00 | 37 | 1015.7 |
| 20260505190518 | 42 | 340 | 16.0 | 24.0 | 0.00 | 0.00 | 0.00 | 38 | 1015.8 |
| 20260505185517 | 42 | 0 | 13.0 | 27.0 | 0.00 | 0.00 | 0.00 | 37 | 1015.7 |
| 20260505184500 | 42 | 0 | 14.0 | 27.0 | 0.00 | 0.00 | 0.00 | 37 | 1015.8 |
| 20260505182318 | 41 | 0 | 16.0 | 25.0 | 0.00 | 0.00 | 0.00 | 37 | 1015.6 |
| 20260505181310 | 41 | 304 | 15.0 | 27.0 | 0.00 | 0.00 | 0.00 | 38 | 1015.7 |
| 20260505173955 | 39 | 292 | 15.0 | 25.0 | 0.00 | 0.00 | 0.00 | 40 | 1015.9 |
| 20260505172927 | 39 | 330 | 16.0 | 25.0 | 0.00 | 0.00 | 0.00 | 42 | 1015.9 |
| 20260505171901 | 38 | 0 | 14.0 | 24.0 | 0.00 | 0.00 | 0.00 | 44 | 1015.8 |
| 20260505170834 | 38 | 0 | 15.0 | 29.0 | 0.00 | 0.00 | 0.00 | 47 | 1016.0 |
| 20260505165755 | 37 | 0 | 15.0 | 29.0 | 0.00 | 0.00 | 0.00 | 48 | 1016.0 |
| 20260505164758 | 37 | 0 | 15.0 | 25.0 | 0.00 | 0.00 | 0.00 | 46 | 1016.0 |
| 20260505163726 | 37 | 0 | 16.0 | 25.0 | 0.00 | 0.00 | 0.00 | 47 | 1016.1 |
| 20260505162704 | 37 | 0 | 15.0 | 26.0 | 0.00 | 0.00 | 0.00 | 46 | 1016.1 |
| 20260505161658 | 37 | 0 | 17.0 | 26.0 | 0.00 | 0.00 | 0.00 | 47 | 1016.0 |
| 20260505160703 | 36 | 0 | 14.0 | 25.0 | 0.00 | 0.00 | 0.00 | 49 | 1015.9 |
| 20260505152412 | 35 | 336 | 14.0 | 24.0 | 0.00 | 0.00 | 0.00 | 52 | 1016.1 |
| 20260505151408 | 36 | 336 | 13.0 | 23.0 | 0.00 | 0.00 | 0.00 | 50 | 1016.0 |
| 20260505150358 | 35 | 355 | 13.0 | 22.0 | 0.00 | 0.00 | 0.00 | 53 | 1016.2 |
| 20260505140328 | 33 | 0 | 14.0 | 22.0 | 0.00 | 0.00 | 0.00 | 65 | 1015.8 |
| 20260505124054 | 30 | 292 | 8.0 | 13.0 | 0.00 | 0.00 | 0.00 | 73 | 1014.8 |
| 20260505123059 | 29 | 288 | 6.0 | 9.0 | 0.00 | 0.00 | 0.00 | 74 | 1014.8 |
| 20260505122054 | 29 | 290 | 4.0 | 9.0 | 0.00 | 0.00 | 0.00 | 74 | 1014.7 |
| 20260505121018 | 29 | 286 | 6.0 | 9.0 | 0.00 | 0.00 | 0.00 | 73 | 1014.6 |
| 20260505114851 | 28 | 290 | 5.0 | 8.0 | 0.00 | 0.00 | 0.00 | 74 | 1014.4 |
| 20260505113904 | 28 | 275 | 6.0 | 9.0 | 0.00 | 0.00 | 0.00 | 74 | 1014.3 |
| 20260505112844 | 28 | 277 | 6.0 | 9.0 | 0.00 | 0.00 | 0.00 | 74 | 1014.2 |
| 20260505111818 | 27 | 281 | 5.0 | 8.0 | 0.00 | 0.00 | 0.00 | 75 | 1014.2 |
| 20260505110804 | 27 | 283 | 5.0 | 6.0 | 0.00 | 0.00 | 0.00 | 75 | 1014.1 |
| 20260505101444 | 28 | 298 | 4.0 | 6.0 | 0.00 | 0.00 | 0.00 | 72 | 1013.6 |
| 20260505100443 | 28 | 304 | 4.0 | 8.0 | 0.00 | 0.00 | 0.00 | 71 | 1013.5 |
| 20260505095415 | 29 | 311 | 5.0 | 8.0 | 0.00 | 0.00 | 0.00 | 70 | 1013.4 |
| 20260505094409 | 29 | 329 | 5.0 | 8.0 | 0.00 | 0.00 | 0.00 | 68 | 1013.3 |
| 20260505093347 | 30 | 325 | 5.0 | 8.0 | 0.00 | 0.00 | 0.00 | 66 | 1013.2 |
| 20260505092314 | 30 | 344 | 5.0 | 9.0 | 0.00 | 0.00 | 0.00 | 64 | 1013.0 |
| 20260505091314 | 31 | 11 | 6.0 | 10.0 | 0.00 | 0.00 | 0.00 | 63 | 1012.9 |
| 20260505090313 | 32 | 350 | 7.0 | 12.0 | 0.00 | 0.00 | 0.00 | 60 | 1012.9 |
| 20260505083048 | 35 | 344 | 8.0 | 14.0 | 0.00 | 0.00 | 0.00 | 58 | 1012.6 |
| 20260505082058 | 36 | 315 | 9.0 | 14.0 | 0.00 | 0.00 | 0.00 | 59 | 1012.5 |
| 20260505075910 | 36 | 337 | 9.0 | 14.0 | 0.00 | 0.00 | 0.00 | 64 | 1012.4 |
| 20260505074858 | 36 | 0 | 9.0 | 14.0 | 0.00 | 0.00 | 0.00 | 64 | 1012.4 |
| 20260505073846 | 36 | 318 | 9.0 | 13.0 | 0.00 | 0.00 | 0.00 | 64 | 1012.4 |
| 20260505072824 | 36 | 317 | 8.0 | 13.0 | 0.00 | 0.00 | 0.00 | 63 | 1012.4 |
| 20260505071840 | 36 | 331 | 8.0 | 11.0 | 0.00 | 0.00 | 0.00 | 64 | 1012.5 |
| 20260505064553 | 37 | 320 | 8.0 | 14.0 | 0.00 | 0.00 | 0.00 | 65 | 1012.4 |
| 20260505063601 | 37 | 321 | 8.0 | 14.0 | 0.00 | 0.00 | 0.00 | 65 | 1012.4 |
| 20260505062536 | 37 | 319 | 9.0 | 13.0 | 0.00 | 0.00 | 0.00 | 65 | 1012.4 |
| 20260505061559 | 37 | 313 | 9.0 | 18.0 | 0.00 | 0.00 | 0.00 | 65 | 1012.2 |
| 20260505055409 | 37 | 329 | 9.0 | 15.0 | 0.00 | 0.00 | 0.00 | 66 | 1012.1 |
| 20260505054406 | 37 | 306 | 7.0 | 12.0 | 0.00 | 0.00 | 0.00 | 67 | 1012.1 |
| 20260505053347 | 37 | 324 | 8.0 | 12.0 | 0.00 | 0.00 | 0.00 | 68 | 1012.1 |
| 20260505051246 | 36 | 0 | 8.0 | 13.0 | 0.00 | 0.00 | 0.00 | 70 | 1012.0 |
| 20260505050237 | 36 | 311 | 10.0 | 14.0 | 0.00 | 0.00 | 0.00 | 71 | 1012.0 |
| 20260505041312 | 38 | 329 | 10.0 | 21.0 | 0.00 | 0.00 | 0.00 | 66 | 1011.8 |
| 20260505040234 | 38 | 0 | 12.0 | 21.0 | 0.00 | 0.00 | 0.00 | 67 | 1011.7 |
| 20260505034044 | 38 | 315 | 14.0 | 19.0 | 0.00 | 0.00 | 0.00 | 64 | 1011.5 |
| 20260505033014 | 38 | 317 | 10.0 | 19.0 | 0.00 | 0.00 | 0.00 | 64 | 1011.4 |
| 20260505032006 | 38 | 0 | 12.0 | 19.0 | 0.00 | 0.00 | 0.00 | 64 | 1011.4 |
| 20260505030935 | 38 | 0 | 11.0 | 18.0 | 0.00 | 0.00 | 0.00 | 64 | 1011.3 |
| 20260505025925 | 39 | 346 | 12.0 | 18.0 | 0.00 | 0.00 | 0.00 | 63 | 1011.2 |
| 20260505023817 | 40 | 310 | 15.0 | 23.0 | 0.00 | 0.00 | 0.00 | 57 | 1011.0 |
| 20260505022736 | 39 | 0 | 14.0 | 23.0 | 0.00 | 0.00 | 0.00 | 57 | 1010.8 |
| 20260505021735 | 40 | 308 | 15.0 | 25.0 | 0.00 | 0.00 | 0.00 | 56 | 1010.7 |
| 20260505014404 | 40 | 321 | 16.0 | 22.0 | 0.00 | 0.00 | 0.00 | 55 | 1010.3 |
| 20260505012301 | 41 | 334 | 16.0 | 24.0 | 0.00 | 0.00 | 0.00 | 53 | 1010.1 |
| 20260505010112 | 41 | 324 | 20.0 | 27.0 | 0.00 | 0.00 | 0.00 | 53 | 1010.1 |
| 20260505005038 | 41 | 334 | 20.0 | 27.0 | 0.00 | 0.00 | 0.00 | 52 | 1010.1 |
| 20260505004035 | 41 | 306 | 17.0 | 26.0 | 0.00 | 0.00 | 0.00 | 54 | 1010.0 |
| 20260505003043 | 41 | 319 | 17.0 | 26.0 | 0.00 | 0.00 | 0.00 | 55 | 1009.9 |
| 20260505002054 | 41 | 317 | 15.0 | 25.0 | 0.00 | 0.00 | 0.00 | 56 | 1010.0 |
| 20260505001041 | 41 | 330 | 14.0 | 30.0 | 0.00 | 0.00 | 0.00 | 58 | 1009.9 |
| 20260505000031 | 41 | 336 | 18.0 | 30.0 | 0.00 | 0.00 | 0.00 | 58 | 1009.9 |
| 20260504235036 | 41 | 323 | 14.0 | 24.0 | 0.00 | 0.00 | 0.00 | 55 | 1009.8 |
| 20260504234006 | 41 | 336 | 16.0 | 30.0 | 0.00 | 0.00 | 0.00 | 56 | 1009.8 |
| 20260504233015 | 41 | 321 | 19.0 | 30.0 | 0.00 | 0.00 | 0.00 | 51 | 1009.7 |
| 20260504231952 | 41 | 0 | 19.0 | 28.0 | 0.00 | 0.00 | 0.00 | 52 | 1009.4 |
| 20260504230931 | 41 | 300 | 18.0 | 28.0 | 0.00 | 0.00 | 0.00 | 51 | 1009.3 |
| 20260504225858 | 41 | 306 | 19.0 | 29.0 | 0.00 | 0.00 | 0.00 | 51 | 1009.2 |
| 20260504223724 | 41 | 313 | 18.0 | 31.0 | 0.00 | 0.00 | 0.00 | 51 | 1009.2 |
| 20260504222720 | 41 | 347 | 21.0 | 31.0 | 0.00 | 0.00 | 0.00 | 51 | 1009.0 |
| 20260504221718 | 42 | 323 | 22.0 | 33.0 | 0.00 | 0.00 | 0.00 | 49 | 1009.1 |
| 20260504220719 | 42 | 319 | 22.0 | 33.0 | 0.00 | 0.00 | 0.00 | 49 | 1009.0 |
| 20260504215725 | 42 | 294 | 23.0 | 31.0 | 0.00 | 0.00 | 0.00 | 48 | 1008.8 |
| 20260504214707 | 42 | 327 | 21.0 | 32.0 | 0.00 | 0.00 | 0.00 | 48 | 1008.8 |
| 20260504213701 | 42 | 325 | 23.0 | 32.0 | 0.00 | 0.00 | 0.00 | 47 | 1008.8 |
| 20260504212710 | 42 | 319 | 20.0 | 31.0 | 0.00 | 0.00 | 0.00 | 47 | 1008.7 |
| 20260504211637 | 42 | 312 | 20.0 | 35.0 | 0.00 | 0.00 | 0.00 | 47 | 1008.6 |
| 20260504210630 | 42 | 310 | 21.0 | 35.0 | 0.00 | 0.00 | 0.00 | 49 | 1008.5 |
| 20260504205616 | 42 | 300 | 20.0 | 31.0 | 0.00 | 0.00 | 0.00 | 47 | 1008.5 |
| 20260504204620 | 42 | 329 | 20.0 | 31.0 | 0.00 | 0.00 | 0.00 | 49 | 1008.5 |